When you browse on this site, cookies collect data to enhance your experience and personalize the content and advertising you see.
Visit our Privacy Policy to learn more. By continuing to use the site, you agree to this use of cookies and data.
  • In United Kingdom
  • List of Countries
  • For 7 days
  • Water Temperature
  • Weather Map
  • Weather Widgets
  • user-avatar
    Login

    Hourly Weather Ropotamo

    Today, 22 August, Thursday

    Time Temperature Precipitation Wind Pressure Humidity
    00:00 +23°C° 0 mm 2 mps 759 mmHg 85%
    01:00 +22°C° 0 mm 3 mps 759 mmHg 83%
    02:00 +21°C° 0 mm 3 mps 759 mmHg 82%
    03:00 +21°C° 0 mm 3 mps 759 mmHg 79%
    04:00 +21°C° 0 mm 3 mps 759 mmHg 76%
    05:00 +21°C° 0 mm 3 mps 758 mmHg 73%
    06:00 +25°C° 0 mm 4 mps 759 mmHg 63%
    07:00 +27°C° 0 mm 4 mps 759 mmHg 54%
    08:00 +29°C° 0 mm 4 mps 759 mmHg 44%
    09:00 +32°C° 0 mm 5 mps 760 mmHg 40%
    10:00 +33°C° 0 mm 6 mps 760 mmHg 36%
    11:00 +34°C° 0 mm 7 mps 760 mmHg 32%
    12:00 +34°C° 0 mm 7 mps 760 mmHg 33%
    13:00 +34°C° 0 mm 7 mps 760 mmHg 33%
    14:00 +34°C° 0 mm 7 mps 759 mmHg 33%
    15:00 +33°C° 0 mm 7 mps 759 mmHg 36%
    16:00 +33°C° 0 mm 6 mps 759 mmHg 38%
    17:00 +32°C° 0 mm 6 mps 759 mmHg 40%
    18:00 +28°C° 0 mm 4 mps 759 mmHg 51%
    19:00 +26°C° 0 mm 3 mps 760 mmHg 62%
    20:00 +24°C° 0 mm 2 mps 760 mmHg 73%
    21:00 +24°C° 0 mm 2 mps 760 mmHg 73%
    22:00 +22°C° 0 mm 3 mps 760 mmHg 73%
    23:00 +22°C° 0 mm 3 mps 760 mmHg 74%

    Tomorrow, 23 August, Friday

    Time Temperature Precipitation Wind Pressure Humidity
    00:00 +22°C° 0 mm 4 mps 760 mmHg 70%
    01:00 +22°C° 0 mm 4 mps 760 mmHg 67%
    02:00 +22°C° 0 mm 5 mps 760 mmHg 63%
    03:00 +22°C° 0 mm 5 mps 760 mmHg 68%
    04:00 +22°C° 0 mm 5 mps 760 mmHg 72%
    05:00 +21°C° 0 mm 6 mps 759 mmHg 76%
    06:00 +23°C° 0 mm 6 mps 760 mmHg 71%
    07:00 +24°C° 0 mm 6 mps 760 mmHg 65%
    08:00 +27°C° 0 mm 6 mps 760 mmHg 59%
    09:00 +29°C° 0 mm 6 mps 760 mmHg 54%
    10:00 +30°C° 0 mm 6 mps 760 mmHg 49%
    11:00 +33°C° 0 mm 6 mps 760 mmHg 44%
    12:00 +33°C° 0 mm 7 mps 760 mmHg 45%
    13:00 +33°C° 0 mm 7 mps 760 mmHg 47%
    14:00 +33°C° 0 mm 7 mps 759 mmHg 48%
    15:00 +32°C° 0 mm 7 mps 759 mmHg 52%
    16:00 +32°C° 0 mm 6 mps 759 mmHg 56%
    17:00 +30°C° 0 mm 6 mps 759 mmHg 59%
    18:00 +28°C° 0 mm 5 mps 759 mmHg 70%
    19:00 +26°C° 0 mm 4 mps 759 mmHg 80%
    20:00 +24°C° 0 mm 3 mps 759 mmHg 91%
    21:00 +24°C° 0 mm 3 mps 759 mmHg 91%
    22:00 +24°C° 0 mm 2 mps 759 mmHg 92%
    23:00 +23°C° 0 mm 2 mps 759 mmHg 92%

    Day after tomorrow, 24 August, Saturday

    Time Temperature Precipitation Wind Pressure Humidity
    00:00 +23°C° 0 mm 2 mps 759 mmHg 92%
    01:00 +22°C° 0 mm 3 mps 759 mmHg 91%
    02:00 +22°C° 0 mm 3 mps 759 mmHg 90%
    03:00 +22°C° 0 mm 3 mps 759 mmHg 88%
    04:00 +22°C° 0 mm 4 mps 759 mmHg 85%
    05:00 +22°C° 0 mm 4 mps 759 mmHg 83%
    06:00 +25°C° 0 mm 5 mps 759 mmHg 77%
    07:00 +26°C° 0 mm 6 mps 760 mmHg 71%
    08:00 +28°C° 0 mm 6 mps 760 mmHg 64%
    09:00 +29°C° 0 mm 7 mps 760 mmHg 60%
    10:00 +32°C° 0 mm 7 mps 760 mmHg 55%
    11:00 +33°C° 0 mm 7 mps 760 mmHg 50%
    12:00 +33°C° 0 mm 7 mps 760 mmHg 49%
    13:00 +33°C° 0 mm 7 mps 760 mmHg 48%
    14:00 +33°C° 0 mm 7 mps 759 mmHg 47%
    15:00 +33°C° 0 mm 7 mps 759 mmHg 49%
    16:00 +32°C° 0 mm 7 mps 759 mmHg 52%
    17:00 +30°C° 0 mm 7 mps 759 mmHg 54%
    18:00 +28°C° 0 mm 6 mps 759 mmHg 66%
    19:00 +26°C° 0 mm 5 mps 759 mmHg 78%
    20:00 +23°C° 0 mm 4 mps 759 mmHg 89%
    21:00 +24°C° 0 mm 3 mps 759 mmHg 91%
    22:00 +22°C° 0 mm 3 mps 759 mmHg 92%
    23:00 +22°C° 0 mm 3 mps 759 mmHg 93%

    25 August, Sunday

    Time Temperature Precipitation Wind Pressure Humidity
    00:00 +22°C° 0 mm 3 mps 759 mmHg 93%
    01:00 +22°C° 0 mm 3 mps 759 mmHg 93%
    02:00 +22°C° 0 mm 3 mps 758 mmHg 93%
    03:00 +21°C° 0 mm 3 mps 758 mmHg 92%
    04:00 +21°C° 0 mm 3 mps 758 mmHg 91%
    05:00 +21°C° 0 mm 3 mps 758 mmHg 90%
    06:00 +24°C° 0 mm 3 mps 759 mmHg 81%
    07:00 +25°C° 0 mm 4 mps 759 mmHg 72%
    08:00 +27°C° 0 mm 4 mps 759 mmHg 63%
    09:00 +29°C° 0 mm 5 mps 759 mmHg 57%
    10:00 +30°C° 0 mm 6 mps 759 mmHg 51%
    11:00 +33°C° 0 mm 6 mps 759 mmHg 45%
    12:00 +33°C° 0 mm 7 mps 759 mmHg 46%
    13:00 +33°C° 0 mm 7 mps 758 mmHg 47%
    14:00 +33°C° 0 mm 7 mps 758 mmHg 48%
    15:00 +32°C° 0 mm 6 mps 758 mmHg 52%
    16:00 +32°C° 0 mm 6 mps 758 mmHg 55%
    17:00 +30°C° 0 mm 6 mps 758 mmHg 59%
    18:00 +28°C° 0 mm 5 mps 758 mmHg 69%
    19:00 +26°C° 0 mm 4 mps 758 mmHg 80%
    20:00 +24°C° 0 mm 3 mps 758 mmHg 90%
    21:00 +24°C° 0 mm 3 mps 759 mmHg 90%
    22:00 +22°C° 0 mm 3 mps 759 mmHg 91%
    23:00 +23°C° 0 mm 2 mps 759 mmHg 91%

    26 August, Monday

    Time Temperature Precipitation Wind Pressure Humidity
    00:00 +22°C° 0 mm 3 mps 759 mmHg 91%
    01:00 +22°C° 0 mm 3 mps 759 mmHg 92%
    02:00 +21°C° 0 mm 3 mps 758 mmHg 92%
    03:00 +21°C° 0 mm 3 mps 758 mmHg 91%
    04:00 +21°C° 0 mm 3 mps 758 mmHg 90%
    05:00 +21°C° 0 mm 3 mps 758 mmHg 89%
    06:00 +22°C° 0 mm 3 mps 759 mmHg 80%
    07:00 +25°C° 0 mm 4 mps 759 mmHg 71%
    08:00 +27°C° 0 mm 4 mps 759 mmHg 62%
    09:00 +28°C° 0 mm 4 mps 759 mmHg 57%
    10:00 +30°C° 0 mm 5 mps 759 mmHg 52%
    11:00 +33°C° 0 mm 6 mps 759 mmHg 47%
    12:00 +33°C° 0 mm 6 mps 759 mmHg 47%
    13:00 +33°C° 0 mm 6 mps 759 mmHg 48%
    14:00 +33°C° 0 mm 6 mps 758 mmHg 48%
    15:00 +32°C° 0 mm 6 mps 758 mmHg 54%
    16:00 +30°C° 0 mm 6 mps 758 mmHg 60%
    17:00 +29°C° 0 mm 6 mps 758 mmHg 67%
    18:00 +27°C° 0 mm 6 mps 759 mmHg 75%
    19:00 +25°C° 0 mm 5 mps 759 mmHg 84%
    20:00 +23°C° 0 mm 5 mps 759 mmHg 92%
    21:00 +23°C° 0 mm 4 mps 759 mmHg 93%
    22:00 +22°C° 0 mm 4 mps 759 mmHg 93%
    23:00 +22°C° 0 mm 3 mps 760 mmHg 94%

    27 August, Tuesday

    Time Temperature Precipitation Wind Pressure Humidity
    00:00 +22°C° 0 mm 3 mps 759 mmHg 94%
    01:00 +22°C° 0 mm 3 mps 759 mmHg 94%
    02:00 +22°C° 0 mm 3 mps 759 mmHg 95%
    03:00 +22°C° 0 mm 4 mps 759 mmHg 94%
    04:00 +22°C° 0 mm 4 mps 759 mmHg 93%
    05:00 +22°C° 0 mm 4 mps 759 mmHg 92%
    06:00 +23°C° 0 mm 4 mps 759 mmHg 88%
    07:00 +23°C° 0 mm 5 mps 759 mmHg 84%
    08:00 +25°C° 0 mm 5 mps 760 mmHg 81%
    09:00 +27°C° 0 mm 6 mps 760 mmHg 73%
    10:00 +29°C° 0 mm 6 mps 760 mmHg 64%
    11:00 +30°C° 0 mm 7 mps 760 mmHg 56%
    12:00 +30°C° 0.1 mm 7 mps 760 mmHg 57%
    13:00 +30°C° 0.1 mm 7 mps 760 mmHg 57%
    14:00 +30°C° 0.1 mm 7 mps 759 mmHg 57%
    15:00 +30°C° 0 mm 7 mps 759 mmHg 59%
    16:00 +29°C° 0 mm 6 mps 759 mmHg 60%
    17:00 +28°C° 0 mm 6 mps 759 mmHg 62%
    18:00 +27°C° 0 mm 6 mps 760 mmHg 72%
    19:00 +25°C° 0 mm 5 mps 760 mmHg 81%
    20:00 +22°C° 0 mm 5 mps 760 mmHg 90%
    21:00 +22°C° 0 mm 4 mps 760 mmHg 92%
    22:00 +22°C° 0 mm 4 mps 760 mmHg 93%
    23:00 +21°C° 0 mm 3 mps 760 mmHg 94%
    Show more